Flag for Canada Weather past 2 weeks in Laval, Quebec, Canada

Now
68 °F

Partly sunny.


Feels Like: 68 °F
Forecast: 52 / 78 °F
Wind: 6 mph from Northeast

Location: Montreal / Mirabel

Current Time: Aug 20, 2014 at 10:40:22 AM

Latest Report: Aug 20, 2014 at 10:00 AM


Visibility: 30 mi

Pressure: 30.01 "Hg

Humidity: 73%

Dew point: 59 °F

Location of LavalLocation

Historic Weather in Laval — Graph

°F

Laval temperature yesterday

Maximum temperature yesterday: 73 °F (at 4:00 PM)
Minimum temperature yesterday: 48 °F (at 5:00 AM)
Average temperature yesterday: 61 °F

Past Weeks' High & Low Weather Summary

 TemperatureHumidityPressure
High84 °F (Aug 10, 4:00 PM)100% (Aug 5, 9:00 AM)30.16 "Hg (Aug 5, 9:00 AM)
Low48 °F (Aug 18, 5:00 AM)36% (Aug 6, 12:00 PM)29.67 "Hg (Aug 14, 12:00 AM)
Average64 °F76%29.93 "Hg
* Reported Aug 5 9:00 AM — Aug 20 9:00 AM, Laval, Weather by CustomWeather, © 2014

Note: Actual official high and low records may vary slightly from our data, if they occured in-between our weather recording intervals... More about our weather records

Advertising

Laval weather history for previous 24 hours

 ConditionsComfort  
Time TempWeatherWind HumidityBarometerVisibility
9:00 AM
Aug 20
64 °FPartly sunny.7 mph78%30.00 "Hg25 mi
8:00 AM59 °FPartly sunny.6 mph88%30.00 "Hg25 mi
7:00 AM55 °FPassing clouds.5 mph88%29.99 "Hg20 mi
6:00 AM54 °FPassing clouds.5 mph94%29.98 "Hg35 mi
5:00 AM55 °FPassing clouds.3 mph88%29.97 "Hg25 mi
4:00 AM55 °FPassing clouds.5 mph88%29.96 "Hg25 mi
3:00 AM54 °FPassing clouds.5 mph100%29.96 "Hg25 mi
2:00 AM54 °FPassing clouds.3 mph94%29.96 "Hg25 mi
1:00 AM57 °FPassing clouds.5 mph88%29.95 "Hg25 mi
12:00 AM55 °FPassing clouds.No wind94%29.96 "Hg25 mi
11:00 PM
Aug 19
57 °FPassing clouds.No wind88%29.95 "Hg25 mi
10:00 PM59 °FPassing clouds.3 mph82%29.95 "Hg25 mi
9:00 PM61 °FPassing clouds.No wind77%29.95 "Hg25 mi
8:00 PM61 °FScattered clouds.No wind88%29.94 "Hg25 mi
7:00 PM66 °FPartly sunny.No wind73%29.93 "Hg45 mi
6:00 PM72 °FPartly sunny.2 mph53%29.93 "Hg45 mi
5:00 PM73 °FPartly sunny.3 mph53%29.93 "Hg45 mi
4:00 PM73 °FPartly sunny.5 mph50%29.93 "Hg45 mi
3:00 PM72 °FScattered clouds.5 mph53%29.93 "Hg45 mi
2:00 PM72 °FBroken clouds.5 mph53%29.94 "Hg45 mi
1:00 PM70 °FBroken clouds.5 mph53%29.95 "Hg45 mi
12:00 PM70 °FBroken clouds.5 mph60%29.96 "Hg45 mi
11:00 AM66 °FPartly sunny.2 mph64%29.96 "Hg45 mi
10:00 AM66 °FPartly sunny.3 mph64%29.96 "Hg25 mi
Weather by CustomWeather, © 2014

See weather overviewHow to use our weather pages